User: anonymous
Location: Unspecified
(0.0000°N, 0.0000°E)
Time: 16:30:59
(UTC+00:00)
Language:

SO-67 - Orbit

View from above orbital plane
View from above orbital plane
View from above satellite
View from above satellite

Ground track
Ground track

The orbit data is extracted from the following two-line orbital elements,

1 35870U 09049F   14275.12905898  .00013016  00000-0  39006-3 0  5646
2 35870 097.1571 293.0918 0003774 088.6049 358.0290 15.34612596280440
Epoch (UTC): 02 October 2014 03:05:50
Eccentricity: 0.0003774
inclination: 97.1571°
perigee height: 459 km
apogee height: 464 km
right ascension of ascending node: 293.0918°
argument of perigee: 88.6049°
revolutions per day: 15.34612596
mean anomaly at epoch: 358.0290°
orbit number at epoch: 28044

The dashed part of the orbit path shows where the satellite is in the earth's shadow,  

DLR